Location: ??
(31.9467°N, 34.8903°E)
Time: 11:30:28
(UTC+00:00)

Okean O Rocket - Pass Details

Date: 29 October 2020
Orbit: 623 x 644 km, 98.2° (Epoch: 26 November)

Event Time Altitude Azimuth Distance (km) Brightness Sun altitude
Rises 15:40:10 0° 182° (S) 2,909 5.2 -10.6°
Reaches altitude 10° 15:42:27 10° 190° (S) 2,002 4.4 -11.0°
Maximum altitude 15:46:34 41° 261° (W) 907 3.1 -11.9°
Drops below altitude 10° 15:50:42 10° 332° (NNW) 2,003 4.4 -12.8°
Sets 15:52:59 0° 339° (NNW) 2,911 5.2 -13.3°
